Le nostre stazioni meteo in Italia

Pubblicità
Il mio iltempo24.it
Marina Di Ginosa, Italia (16325): Temperatura & dewpoint: 19.05.2019 08:00:00 - 25.05.2019 08:00:00 (CEST)Marina Di Ginosa, Italia (16325): velocità del vento: 19.05.2019 08:00:00 - 25.05.2019 08:00:00 (CEST)Marina Di Ginosa, Italia (16325): direzione del vento: 19.05.2019 08:00:00 - 25.05.2019 08:00:00 (CEST)Marina Di Ginosa, Italia (16325): reduced air pressure: 19.05.2019 08:00:00 - 25.05.2019 08:00:00 (CEST)Marina Di Ginosa, Italia (16325): visibility: 19.05.2019 08:00:00 - 25.05.2019 08:00:00 (CEST)
Data & Tempo tt [°C] td [°C] ff [km/h] ff [kn] dd ppp [hPa] vv [km]
25.05.2019 08:00:00 - - - - - - -
25.05.2019 07:00:00 17,0 14,0 11 6 NO - 10
25.05.2019 06:00:00 15,0 13,0 15 8 ONO - 10
25.05.2019 05:00:00 15,0 13,2 13 7 ONO 1013,4 20
25.05.2019 04:00:00 15,0 14,0 9 5 ONO - 10
25.05.2019 03:00:00 16,0 15,0 9 5 NO - 10
25.05.2019 02:00:00 16,0 14,4 11 6 NO 1013,1 50
25.05.2019 01:00:00 18,0 16,0 9 5 NO - 10
25.05.2019 00:00:00 19,0 16,0 9 5 NO - 10
24.05.2019 23:00:00 19,2 15,9 8 4 NE 1013,5 20
24.05.2019 22:00:00 20,0 18,0 9 5 ENE - 10
24.05.2019 21:00:00 20,0 17,0 11 6 E - 10
24.05.2019 20:00:00 21,0 17,6 9 5 S 1011,4 20
24.05.2019 19:00:00 22,0 18,0 9 5 S - 10
24.05.2019 18:00:00 24,0 19,0 11 6 S - 10
24.05.2019 17:00:00 24,2 16,0 21 11 SSO 1011,5 20
24.05.2019 16:00:00 25,0 16,0 22 12 SSO - 10
24.05.2019 15:00:00 25,0 16,0 24 13 SSO - 10
24.05.2019 14:00:00 25,8 14,6 16 9 S 1012,4 25
24.05.2019 13:00:00 27,0 12,0 13 7 - - 10
24.05.2019 12:00:00 26,0 12,0 15 8 NO - 10
24.05.2019 11:00:00 25,2 13,1 16 9 NO 1013,4 20
24.05.2019 10:00:00 23,0 13,0 15 8 - - 10
24.05.2019 09:00:00 20,0 13,0 15 8 ONO - 10
24.05.2019 08:00:00 16,2 12,2 13 7 ONO 1013,5 10
24.05.2019 07:00:00 15,0 12,0 5 3 O - 10
24.05.2019 06:00:00 13,0 11,0 15 8 ONO - 10
24.05.2019 05:00:00 13,0 11,6 13 7 O 1013,4 20
24.05.2019 04:00:00 13,0 12,0 13 7 ONO - 10
24.05.2019 03:00:00 13,0 12,0 15 8 ONO - 10
24.05.2019 02:00:00 13,2 12,4 9 5 ONO 1013,9 20
24.05.2019 01:00:00 14,0 13,0 11 6 ONO - 10
24.05.2019 00:00:00 14,0 13,0 11 6 ONO - 10
23.05.2019 23:00:00 15,0 13,7 11 6 ONO 1014,3 20
23.05.2019 22:00:00 15,0 13,0 13 7 NO - 10
23.05.2019 21:00:00 16,0 13,0 13 7 NO - 10
23.05.2019 20:00:00 17,0 13,5 15 8 NO 1013,7 20
23.05.2019 19:00:00 19,0 13,0 16 9 ONO - 10
23.05.2019 18:00:00 21,0 14,0 22 12 O - 10
23.05.2019 17:00:00 22,2 -30,0 8 4 N 1013,2 20
23.05.2019 16:00:00 20,0 17,0 8 4 SSO - 10
23.05.2019 15:00:00 19,0 16,0 9 5 E - 10
23.05.2019 14:00:00 17,8 14,3 16 9 O 1014,3 10
23.05.2019 13:00:00 20,0 18,0 11 6 SSO - 10
23.05.2019 12:00:00 22,0 16,0 11 6 S - 10
23.05.2019 11:00:00 24,0 14,1 11 6 SE 1014,6 20
23.05.2019 10:00:00 23,0 12,0 9 5 - - 10
23.05.2019 09:00:00 21,0 -30,0 15 8 O - 10
23.05.2019 08:00:00 18,0 11,8 11 6 ONO 1014,5 20
23.05.2019 07:00:00 14,0 11,0 13 7 NO - 10
23.05.2019 06:00:00 12,0 11,0 13 7 ONO - 10
23.05.2019 05:00:00 12,2 10,6 15 8 ONO 1014,5 20
23.05.2019 04:00:00 13,0 12,0 9 5 ONO - 10
23.05.2019 03:00:00 13,0 12,0 11 6 NO - 10
23.05.2019 02:00:00 14,0 12,4 9 5 NO 1015,2 20
23.05.2019 01:00:00 14,0 13,0 11 6 NO - 10
23.05.2019 00:00:00 15,0 14,0 9 5 NO - 10
22.05.2019 23:00:00 16,6 14,8 5 3 NE 1015,2 20
22.05.2019 22:00:00 18,0 16,0 8 4 ESE - 10
22.05.2019 21:00:00 19,0 16,0 9 5 SE - 10
22.05.2019 20:00:00 19,8 15,0 5 3 SSE 1014,4 20
22.05.2019 19:00:00 21,0 14,0 16 9 SSO - 10
22.05.2019 18:00:00 22,0 14,0 21 11 SSO - 10
22.05.2019 17:00:00 22,4 15,3 18 10 SSO 1014,6 20
22.05.2019 16:00:00 23,0 16,0 13 7 SSE - 10
22.05.2019 15:00:00 24,0 17,0 15 8 SSE - 10
22.05.2019 14:00:00 24,0 15,0 11 6 SSE 1015,4 20
22.05.2019 13:00:00 24,0 16,0 16 9 SSE - 10
22.05.2019 12:00:00 - - - - - - -
22.05.2019 11:00:00 22,8 14,1 11 6 S 1015,6 20
22.05.2019 10:00:00 22,0 9,0 8 4 O - 10
22.05.2019 09:00:00 19,0 10,0 9 5 O - 10
22.05.2019 08:00:00 13,8 10,4 8 4 O 1015,4 10
22.05.2019 07:00:00 11,0 10,0 9 5 ONO - 10
22.05.2019 06:00:00 11,0 10,0 13 7 ONO - 10
22.05.2019 05:00:00 11,2 9,8 9 5 NO 1015,3 10
22.05.2019 04:00:00 12,0 10,0 9 5 NO - 10
22.05.2019 03:00:00 13,0 11,0 9 5 ONO - 10
22.05.2019 02:00:00 12,8 8,9 8 4 ONO 1015,4 20
22.05.2019 01:00:00 15,0 11,0 5 3 O - 10
22.05.2019 00:00:00 16,0 11,0 11 6 ONO - 10
21.05.2019 23:00:00 17,0 11,1 13 7 ONO 1015,4 20
21.05.2019 22:00:00 19,0 12,0 15 8 O - 10
21.05.2019 21:00:00 20,0 11,0 13 7 O - 10
21.05.2019 20:00:00 21,2 10,4 15 8 O 1013,8 20
21.05.2019 19:00:00 23,0 10,0 16 9 O - 10
21.05.2019 18:00:00 24,0 10,0 21 11 OSO - 10
21.05.2019 17:00:00 25,2 11,4 18 10 OSO 1013,4 20
21.05.2019 16:00:00 24,0 12,0 16 9 O - 10
21.05.2019 15:00:00 23,0 15,0 15 8 SSE - 10
21.05.2019 14:00:00 21,4 14,6 5 3 S 1013,8 20
21.05.2019 13:00:00 22,0 16,0 13 7 S - 10
21.05.2019 12:00:00 21,0 15,0 15 8 SSE - 10
21.05.2019 11:00:00 21,6 14,3 13 7 E 1013,4 20
21.05.2019 10:00:00 21,0 13,0 11 6 SE - 10
21.05.2019 09:00:00 20,0 13,0 13 7 S - 10
21.05.2019 08:00:00 18,6 12,1 13 7 OSO 1012,5 10
21.05.2019 07:00:00 14,0 12,0 11 6 OSO - 10
21.05.2019 06:00:00 12,0 11,0 9 5 ONO - 10
21.05.2019 05:00:00 10,8 9,9 11 6 NO 1012,4 20
21.05.2019 04:00:00 11,0 10,0 5 3 ONO - 10
21.05.2019 03:00:00 13,0 11,0 13 7 NNO - 10
21.05.2019 02:00:00 13,0 10,4 11 6 O 1013,1 20
21.05.2019 01:00:00 15,0 11,0 13 7 ONO - 10
21.05.2019 00:00:00 15,0 11,0 16 9 NO - 10
20.05.2019 23:00:00 16,2 10,7 15 8 O 1012,3 20
20.05.2019 22:00:00 16,0 11,0 13 7 SO - 10
20.05.2019 21:00:00 16,0 14,0 5 3 NE - 10
20.05.2019 20:00:00 18,0 15,8 5 3 NNO 1011,3 20
20.05.2019 19:00:00 20,0 17,0 11 6 NNE - 10
20.05.2019 18:00:00 20,0 17,0 8 4 E - 10
20.05.2019 17:00:00 20,0 16,8 11 6 SSE 1011,4 20
20.05.2019 16:00:00 20,0 15,0 9 5 ESE - 10
20.05.2019 15:00:00 18,0 16,0 16 9 SSE - 10
20.05.2019 14:00:00 20,4 16,8 8 4 SSE 1011,4 20
20.05.2019 13:00:00 22,0 15,0 13 7 SSO - 10
20.05.2019 12:00:00 23,0 14,0 18 10 SE - 10
20.05.2019 11:00:00 21,6 14,3 13 7 S 1010,3 20
20.05.2019 10:00:00 20,0 13,0 13 7 S - 10
20.05.2019 09:00:00 19,0 12,0 13 7 OSO - 10
20.05.2019 08:00:00 17,0 11,9 4 2 N 1009,4 20
20.05.2019 07:00:00 10,0 8,0 2 1 - - 10
20.05.2019 06:00:00 8,0 6,0 4 2 SE - 10
20.05.2019 05:00:00 13,6 11,0 8 4 NO 1008,4 20
20.05.2019 04:00:00 15,0 11,0 8 4 ONO - 10
20.05.2019 03:00:00 15,0 11,0 9 5 ONO - 10
20.05.2019 02:00:00 16,0 10,3 16 9 OSO 1009,2 20
20.05.2019 01:00:00 10,0 6,0 11 6 OSO - 10
20.05.2019 00:00:00 17,0 11,0 11 6 O - 10
19.05.2019 23:00:00 17,6 12,9 5 3 OSO 1007,9 20
19.05.2019 22:00:00 14,0 8,0 9 5 O - 10
19.05.2019 21:00:00 19,0 12,0 15 8 OSO - 10
19.05.2019 20:00:00 21,0 12,4 11 6 OSO 1006,6 10
19.05.2019 19:00:00 23,0 12,0 15 8 O - 10
19.05.2019 18:00:00 23,0 15,0 9 5 - - 10
19.05.2019 17:00:00 24,0 12,3 18 10 NNO 1004,6 10
19.05.2019 16:00:00 25,0 11,0 24 13 O - 10
19.05.2019 15:00:00 23,0 16,0 18 10 SE - 10
19.05.2019 14:00:00 21,0 15,8 11 6 S 1004,1 10
19.05.2019 13:00:00 22,0 17,0 16 9 SE - 10
19.05.2019 12:00:00 22,0 17,0 11 6 SE - 10
19.05.2019 11:00:00 21,8 16,7 11 6 SE 1004,2 10
19.05.2019 10:00:00 20,0 16,0 5 3 ESE - 10
19.05.2019 09:00:00 20,0 16,0 8 4 S - 10
19.05.2019 08:00:00 18,8 17,0 16 9 SSE 1004,4 20

tt = Temperatura
td = dewpoint
ff = velocità del vento
dd = direzione del vento
ppp = reduced air pressure
vv = visibility

Stazioni seguenti

WeatherPro
AMSI
MeteoEarth